User: anonymous   Login
Location: North Bay
(46.3091°N, 79.4608°W)
Time: 23:59:01
(UTC-04:00)
Language:

ISS - Orbit

View from above orbital plane
View from above orbital plane
View from above satellite
View from above satellite

Ground track
Ground track

The orbit data is extracted from the following two-line orbital elements,

1 25544U 98067A   23088.08098380  .00030532  00000-0  54595-3 0  9991
2 25544  51.6421   5.4335 0005829 143.4013  50.0954 15.49721800389360
Epoch (UTC): 29 March 2023 01:56:37
Eccentricity: 0.0005829
inclination: 51.6421°
perigee height: 413 km
apogee height: 421 km
right ascension of ascending node: 5.4335°
argument of perigee: 143.4013°
revolutions per day: 15.49721800
mean anomaly at epoch: 50.0954°
orbit number at epoch: 38936

The dashed part of the orbit path shows where the satellite is in the earth's shadow,  

DLR